[[{"header":{"parameterUnit":"m.s-1","parameterCategory":1,"la1":30.2991,"la2":30.254,"lo1":-89.0895,"lo2":-89.0444,"dy":0.0017,"dx":0.0017,"nx":28,"ny":28,"refTime":"2025-03-25T09:00:00:Z","depth":0,"parameterNumber":2,"parameterNumberName":"U-component_of_WINDS"},"data":[0,0,0,0,0,0,0,0,0,0,0,0,0,0,0,0,0,0,0,0,0,0,0,0,0,0,0,0,0,0,0,0,0,0,0,0,0,0,0,0,0,0,0,0,0,0,0,0,0,0,0,0,0,0,0,0,0,0,-0.2911,-0.2911,0,-0.2906,-0.2906,-0.2906,-0.2832,-0.283,-0.2828,-0.2826,-0.2825,-0.2827,-0.2829,0,0,0,0,0,0,0,0,0,0,0,0,0,-0.286,-0.2861,-0.2911,-0.2911,-0.2911,-0.2906,-0.2906,-0.2906,-0.2832,-0.283,-0.2827,-0.2825,-0.2825,-0.2827,-0.2829,0,0,0,0,0,0,0,0,0,0,0,0,0,-0.2871,-0.2861,-0.2911,-0.2873,-0.2869,-0.2906,-0.2906,-0.2906,-0.2833,-0.283,-0.2827,-0.2824,-0.2824,-0.2827,-0.2829,-0.2903,0,0,-0.2837,-0.2839,0,0,0,0,0,0,0,0,-0.2871,-0.2873,-0.2879,-0.2876,-0.2872,-0.2867,-0.2888,-0.2905,-0.2833,-0.2847,-0.2826,-0.2823,-0.2842,-0.2843,-0.2848,-0.2903,-0.2903,-0.2838,-0.2839,-0.284,-0.2841,0,0,0,0,0,0,0,-0.287,-0.2873,-0.2909,-0.2879,-0.2875,-0.2858,-0.2856,-0.2891,-0.2861,-0.2845,-0.284,-0.284,-0.2839,-0.2846,-0.2848,-0.2903,-0.2838,-0.284,-0.2842,-0.2843,-0.3021,-0.3024,0,0,0,0,0,0,-0.2874,-0.2873,-0.2909,-0.2909,-0.2864,-0.2861,-0.2859,-0.2871,-0.286,-0.2855,-0.2843,-0.2837,-0.2843,-0.2845,-0.2847,-0.2934,-0.284,-0.2843,-0.2844,-0.3018,-0.3022,-0.3025,0,0,0,0,0,0,-0.2873,-0.2878,-0.2909,-0.289,-0.2892,-0.2865,-0.2879,-0.2873,-0.2879,-0.2858,-0.2852,-0.2855,-0.2841,-0.2844,-0.289,-0.2933,-0.2844,-0.2846,-0.3014,-0.3019,-0.3024,-0.3108,0,0,0,0,0,0,-0.2872,-0.2878,-0.2904,-0.2891,-0.2894,-0.2951,-0.2882,-0.2875,-0.2883,-0.2876,-0.2868,-0.2864,-0.2839,-0.2887,-0.2893,-0.2935,-0.2849,-0.301,-0.3017,-0.3022,-0.3101,-0.3115,-0.3127,0,0,0,0,0,-0.287,-0.2929,-0.2906,-0.2911,-0.2926,-0.2953,-0.2955,-0.2924,-0.2887,-0.2914,-0.2901,-0.2864,-0.2928,-0.2892,-0.2898,-0.2942,-0.3008,-0.3015,-0.3022,-0.3096,-0.3113,-0.3127,0,0,0,0,0,0,-0.2949,-0.2926,-0.2901,-0.2956,-0.2957,-0.2941,-0.2974,-0.2943,-0.2955,-0.2947,-0.291,-0.2909,-0.2962,-0.2957,-0.2917,-0.3015,-0.2961,-0.297,-0.3015,-0.3031,-0.3044,-0.3044,-0.2851,0,0,0,0,0,-0.2972,-0.2995,-0.2975,-0.3026,-0.3027,-0.3001,-0.3012,-0.2988,-0.2988,-0.2988,-0.2978,-0.2981,-0.3002,-0.3017,-0.3034,-0.3101,-0.3099,-0.3135,-0.3148,-0.3158,-0.3166,-0.3203,-0.3219,-0.3049,-0.3049,-0.3048,0,0,-0.3021,-0.3012,-0.3028,-0.3041,-0.3039,-0.3065,-0.3002,-0.3032,-0.3051,-0.2993,-0.3036,-0.303,-0.3031,-0.3088,-0.3113,-0.3086,-0.3213,-0.3167,-0.3176,-0.3178,-0.3212,-0.3228,-0.3242,-0.3053,-0.3053,-0.3052,0,0,-0.3124,-0.3119,-0.3161,-0.3161,-0.3158,-0.3141,-0.3151,-0.314,-0.3133,-0.3176,-0.3134,-0.3158,-0.3194,-0.3197,-0.3203,-0.3311,-0.3277,-0.3318,-0.3384,-0.3421,-0.3434,-0.3446,-0.3486,-0.35,-0.3326,-0.3326,-0.3326,0,-0.3185,-0.3221,-0.3187,-0.322,-0.3228,-0.3176,-0.322,-0.3222,-0.3227,-0.3234,-0.3204,-0.325,-0.3246,-0.3305,-0.3331,-0.3338,-0.335,-0.3318,-0.3435,-0.3446,-0.3457,-0.3494,-0.3509,-0.3331,-0.333,-0.333,-0.3329,0,-0.3298,-0.3324,-0.3359,-0.3364,-0.3375,-0.3414,-0.3387,-0.3404,-0.338,-0.3367,-0.3413,-0.3408,-0.3424,-0.3437,-0.3414,-0.3493,-0.3476,-0.3441,-0.3387,-0.3479,-0.3513,-0.3527,-0.3338,-0.3336,-0.3335,-0.3334,0,0,-0.3447,-0.3434,-0.3447,-0.345,-0.3445,-0.3466,-0.3504,-0.3519,-0.3535,-0.3541,-0.3573,-0.3606,-0.3574,-0.3582,-0.3559,-0.3591,-0.3679,-0.3552,-0.3552,-0.3576,-0.3767,-0.3794,-0.3811,-0.3657,-0.366,-0.3662,-0.3768,0,-0.3546,-0.3608,-0.3579,-0.3645,-0.367,-0.3623,-0.3656,-0.3658,-0.3648,-0.3669,-0.3658,-0.3682,-0.3638,-0.3642,-0.3672,-0.3662,-0.3716,-0.3654,-0.3688,-0.3689,-0.3688,-0.3828,-0.3856,-0.3956,-0.3781,-0.3783,-0.3784,0,-0.3669,-0.368,-0.3748,-0.3741,-0.375,-0.378,-0.3794,-0.3814,-0.3817,-0.3807,-0.3817,-0.3788,-0.3827,-0.3774,-0.3828,-0.3786,-0.3799,-0.3797,-0.38,-0.3801,-0.3742,-0.3834,-0.3986,-0.4002,-0.3805,-0.3803,-0.3802,0,-0.3772,-0.3804,-0.3849,-0.3853,-0.3845,-0.3868,-0.3866,-0.3866,-0.3878,-0.3891,-0.3899,-0.3917,-0.3927,-0.3942,-0.392,-0.3883,-0.3978,-0.3923,-0.3973,-0.3973,-0.3994,-0.3993,-0.4151,-0.4003,-0.4002,-0.4002,-0.4002,0,-0.3886,-0.393,-0.3895,-0.3923,-0.3972,-0.394,-0.399,-0.3983,-0.3984,-0.4011,-0.3973,-0.4,-0.3969,-0.3994,-0.3977,-0.4026,-0.403,-0.4025,-0.402,-0.4028,-0.4029,-0.4036,-0.4028,-0.4006,-0.4005,-0.4004,-0.4004,0,-0.4008,-0.3987,-0.4033,-0.4023,-0.4022,-0.4058,-0.405,-0.4077,-0.4065,-0.41,-0.4107,-0.4088,-0.4115,-0.4095,-0.4122,-0.4111,-0.4176,-0.4161,-0.4174,-0.417,-0.4222,-0.4217,-0.4389,-0.4411,-0.4249,-0.425,-0.4252,0,-0.4082,-0.4114,-0.4108,-0.4123,-0.4124,-0.4149,-0.4161,-0.4133,-0.4147,-0.4155,-0.4181,-0.4205,-0.4223,-0.427,-0.426,-0.4281,-0.4267,-0.4326,-0.427,-0.4278,-0.4269,-0.4267,-0.4271,-0.4337,-0.4339,-0.4341,-0.4342,0,-0.4215,-0.4204,-0.4222,-0.4238,-0.4254,-0.4265,-0.4274,-0.4289,-0.426,-0.428,-0.4307,-0.4321,-0.4349,-0.4375,-0.4393,-0.4394,-0.4364,-0.436,-0.4373,-0.4381,-0.4388,-0.4386,-0.4205,-0.4356,-0.4354,-0.4353,-0.4352,-0.4352,-0.4315,-0.4343,-0.4343,-0.4366,-0.437,-0.4379,-0.4404,-0.4395,-0.4417,-0.4437,-0.442,-0.4453,-0.4459,-0.448,-0.4485,-0.4512,-0.4488,-0.4506,-0.4511,-0.4516,-0.4524,-0.4384,-0.4515,-0.4515,-0.4514,-0.4514,-0.4514,0,-0.4447,-0.4445,-0.4467,-0.448,-0.4499,-0.4469,-0.4478,-0.4496,-0.4525,-0.4532,-0.455,-0.4584,-0.4609,-0.4602,-0.4625,-0.4649,-0.4636,-0.4656,-0.4654,-0.4655,-0.4543,-0.453,-0.4666,-0.4666,-0.4666,-0.4666,-0.4666,-0.4666,-0.4518,-0.4563,-0.4552,-0.46,-0.4599,-0.463,-0.4638,-0.4648,-0.4653,-0.4691,-0.4711,-0.4707,-0.4709,-0.4732,-0.4755,-0.4753,-0.4763,-0.4788,-0.4781,-0.4677,-0.4662,-0.4648,-0.4635,-0.4791,-0.4791,-0.489,-0.4891,-0.4892]},{"header":{"parameterUnit":"m.s-1","parameterCategory":1,"la1":30.2991,"la2":30.254,"lo1":-89.0895,"lo2":-89.0444,"dy":0.0017,"dx":0.0017,"nx":28,"ny":28,"refTime":"2025-03-25T09:00:00:Z","depth":0,"parameterNumber":3,"parameterNumberName":"V-component_of_WINDS"},"data":[0,0,0,0,0,0,0,0,0,0,0,0,0,0,0,0,0,0,0,0,0,0,0,0,0,0,0,0,0,0,0,0,0,0,0,0,0,0,0,0,0,0,0,0,0,0,0,0,0,0,0,0,0,0,0,0,0,0,2.3533,2.3533,0,2.3537,2.3537,2.3537,2.3529,2.3529,2.3529,2.3529,2.3532,2.3532,2.3532,0,0,0,0,0,0,0,0,0,0,0,0,0,2.3519,2.3519,2.3533,2.3533,2.3533,2.3537,2.3537,2.3537,2.3529,2.3529,2.3529,2.3529,2.3532,2.3532,2.3532,0,0,0,0,0,0,0,0,0,0,0,0,0,2.3524,2.352,2.3533,2.353,2.353,2.3537,2.3537,2.3537,2.353,2.3529,2.3529,2.3528,2.3532,2.3532,2.3532,2.3542,0,0,2.3534,2.3534,0,0,0,0,0,0,0,0,2.3524,2.3525,2.353,2.353,2.353,2.3532,2.3533,2.3539,2.353,2.353,2.3529,2.3528,2.3532,2.3533,2.3534,2.3543,2.3543,2.3534,2.3534,2.3534,2.3534,0,0,0,0,0,0,0,2.3524,2.3525,2.3535,2.3531,2.353,2.3528,2.3529,2.3534,2.3533,2.353,2.3529,2.353,2.3532,2.3534,2.3534,2.3543,2.3534,2.3534,2.3535,2.3535,2.3559,2.356,0,0,0,0,0,0,2.3524,2.3524,2.3534,2.3535,2.3526,2.3529,2.3529,2.3532,2.3533,2.3533,2.353,2.3529,2.3533,2.3533,2.3534,2.3545,2.3534,2.3535,2.3535,2.3559,2.3559,2.356,0,0,0,0,0,0,2.3524,2.3525,2.3534,2.3529,2.353,2.3529,2.3533,2.3532,2.3534,2.3533,2.3533,2.3532,2.3533,2.3533,2.354,2.3545,2.3535,2.3535,2.3558,2.3559,2.3559,2.3568,0,0,0,0,0,0,2.3523,2.3525,2.3529,2.353,2.3531,2.3541,2.3533,2.3532,2.3535,2.3534,2.3535,2.3534,2.3532,2.354,2.3541,2.3546,2.3536,2.3558,2.3559,2.3559,2.3567,2.3569,2.357,0,0,0,0,0,2.3523,2.3531,2.3529,2.353,2.3536,2.3541,2.3542,2.3539,2.3535,2.3539,2.3538,2.3534,2.3545,2.354,2.3542,2.3547,2.3558,2.3558,2.3559,2.3567,2.3569,2.357,0,0,0,0,0,0,2.353,2.3531,2.3529,2.3537,2.3539,2.354,2.3544,2.3541,2.3544,2.3543,2.354,2.3541,2.3548,2.3548,2.3543,2.3556,2.355,2.3552,2.3556,2.3557,2.3559,2.3558,2.3536,0,0,0,0,0,2.3533,2.3538,2.3538,2.3546,2.3547,2.3545,2.3548,2.3546,2.3547,2.3548,2.3548,2.355,2.3553,2.3555,2.3559,2.3568,2.3567,2.3572,2.3573,2.3574,2.3575,2.3579,2.3581,2.3562,2.3562,2.3562,0,0,2.3539,2.354,2.3543,2.3547,2.3548,2.3553,2.3546,2.3551,2.3554,2.3549,2.3555,2.3555,2.3557,2.3565,2.3568,2.3565,2.358,2.3576,2.3576,2.3577,2.358,2.3582,2.3584,2.3563,2.3563,2.3563,0,0,2.3551,2.3552,2.3559,2.356,2.3562,2.3561,2.3563,2.3564,2.3564,2.357,2.3566,2.357,2.3576,2.3577,2.3578,2.3591,2.3588,2.3593,2.36,2.3604,2.3605,2.3607,2.361,2.3612,2.3594,2.3594,2.3594,0,2.3557,2.3564,2.3562,2.3567,2.3569,2.3565,2.3571,2.3573,2.3575,2.3577,2.3573,2.3581,2.3582,2.359,2.3593,2.3594,2.3596,2.3592,2.3605,2.3607,2.3608,2.3611,2.3613,2.3594,2.3594,2.3594,2.3594,0,2.3572,2.3576,2.3581,2.3584,2.3587,2.3593,2.3591,2.3594,2.3592,2.3592,2.3598,2.3599,2.3602,2.3604,2.3602,2.3611,2.3609,2.3606,2.36,2.361,2.3613,2.3615,2.3595,2.3595,2.3594,2.3594,0,0,2.3588,2.359,2.3592,2.3593,2.3595,2.3598,2.3604,2.3607,2.3609,2.3612,2.3616,2.3621,2.3618,2.362,2.3618,2.3622,2.3631,2.3618,2.3618,2.3619,2.3641,2.3643,2.3644,2.3629,2.3629,2.363,2.364,0,2.3599,2.3609,2.3607,2.3616,2.362,2.3617,2.3621,2.3623,2.3623,2.3626,2.3626,2.3629,2.3625,2.3626,2.363,2.3629,2.3635,2.3629,2.3632,2.3632,2.3631,2.3646,2.3648,2.3658,2.3642,2.3642,2.3642,0,2.3614,2.3617,2.3626,2.3627,2.3629,2.3633,2.3636,2.3639,2.3641,2.3641,2.3643,2.364,2.3645,2.364,2.3647,2.3642,2.3644,2.3644,2.3644,2.3644,2.3637,2.3645,2.3662,2.3663,2.3644,2.3644,2.3644,0,2.3624,2.363,2.3636,2.3638,2.3639,2.3642,2.3643,2.3645,2.3647,2.3649,2.365,2.3654,2.3655,2.3657,2.3656,2.3652,2.3663,2.3657,2.3662,2.3662,2.3663,2.3663,2.3679,2.3666,2.3666,2.3666,2.3666,0,2.3636,2.3642,2.3641,2.3645,2.3651,2.3649,2.3655,2.3656,2.3657,2.3661,2.3658,2.3661,2.3659,2.3663,2.3662,2.3667,2.3668,2.3667,2.3667,2.3667,2.3667,2.3667,2.3666,2.3666,2.3666,2.3666,2.3666,0,2.3648,2.3648,2.3654,2.3655,2.3656,2.366,2.3661,2.3665,2.3664,2.3669,2.367,2.367,2.3673,2.3672,2.3676,2.3675,2.3682,2.3681,2.3681,2.3681,2.3685,2.3684,2.3701,2.3703,2.3689,2.369,2.369,0,2.3655,2.366,2.3661,2.3664,2.3665,2.3669,2.3671,2.367,2.3672,2.3674,2.3677,2.3681,2.3683,2.3689,2.3689,2.3692,2.369,2.3696,2.3691,2.3691,2.3689,2.3689,2.3689,2.3697,2.3697,2.3697,2.3697,0,2.3668,2.3668,2.3671,2.3674,2.3677,2.368,2.3682,2.3684,2.3683,2.3685,2.3689,2.3691,2.3695,2.3698,2.3701,2.3702,2.3699,2.3699,2.37,2.37,2.37,2.3699,2.3683,2.3698,2.3698,2.3698,2.3698,2.3698,2.3677,2.3681,2.3683,2.3686,2.3688,2.369,2.3693,2.3694,2.3697,2.37,2.3699,2.3704,2.3705,2.3708,2.3709,2.3712,2.371,2.3712,2.3712,2.3713,2.3713,2.37,2.3713,2.3713,2.3713,2.3713,2.3713,0,2.369,2.3691,2.3694,2.3697,2.37,2.3698,2.3701,2.3703,2.3707,2.3709,2.3711,2.3715,2.3719,2.3719,2.3722,2.3724,2.3723,2.3725,2.3724,2.3724,2.3715,2.3713,2.3726,2.3726,2.3726,2.3726,2.3726,2.3726,2.3696,2.3702,2.3702,2.3708,2.3709,2.3713,2.3715,2.3717,2.3718,2.3723,2.3726,2.3726,2.3727,2.373,2.3733,2.3733,2.3734,2.3736,2.3735,2.3726,2.3725,2.3724,2.3722,2.3736,2.3736,2.3744,2.3745,2.3745]}]]